Wind_Speed
1 2 4 3 2 4 3 2 11 11 12 10 12 16 18 20 22 27 28 27 20 15 16 19 15 11 8 7 5 6 8 12 17 21 23 23 24 21 21 25 29 34 29
6 2 3 3 5 5 5 6 8 9 12 12 13 14 16 18 21 21 25 23 22 20 22 23 20 15 9 6 5 4 4 7 13 20 26 25 23 23 25 27 28 34 32
2 2 2 6 7 8 8 6 5 7 10 10 12 15 18 17 15 13 20 21 20 18 22 26 25 19 13 8 6 4 4 1 8 16 21 24 23 24 25 27 30 34 31
2 1 2 3 5 4 1 0 4 3 5 10 11 14 19 18 16 17 15 19 18 17 20 23 30 23 20 12 12 10 10 7 3 15 19 21 22 24 25 28 31 35 31
4 3 2 3 3 6 4 5 4 1 3 8 11 10 17 22 17 16 17 19 19 17 20 26 29 29 27 21 15 12 10 13 12 11 19 18 21 23 27 30 31 31 30
3 3 4 5 2 6 8 5 4 5 1 7 10 9 14 20 17 15 15 16 24 21 17 22 26 32 30 28 21 17 17 15 14 13 18 18 18 22 26 30 31 28 28
7 5 4 8 8 4 3 4 6 1 5 4 4 6 13 15 17 11 12 13 22 24 22 18 22 28 33 30 26 23 20 19 19 15 14 15 16 21 26 28 32 28 25
10 8 7 6 7 5 4 4 2 2 1 1 7 11 13 11 12 9 11 11 16 19 21 22 19 24 28 33 31 28 25 22 22 25 21 18 18 19 24 26 29 29 25
13 12 10 10 7 6 6 5 5 2 2 1 6 13 14 10 9 8 11 12 14 16 18 21 20 18 24 28 32 33 29 26 22 22 22 19 20 20 21 24 30 28 22
15 12 12 11 13 11 9 6 6 8 6 3 3 12 10 8 8 6 8 11 11 14 17 18 23 21 18 23 26 29 32 30 26 22 22 21 19 18 20 24 25 22 21
22 17 17 12 14 16 12 6 19 11 7 3 1 12 7 6 7 4 7 8 10 9 14 13 16 18 16 18 22 24 27 29 32 29 25 22 23 21 20 22 22 20 18
20 24 24 18 15 16 16 15 14 12 11 7 2 12 13 7 6 7 6 7 7 8 8 12 13 13 13 12 16 21 22 23 25 27 29 27 24 22 20 19 16 15 13
22 21 27 27 20 18 17 20 20 14 13 8 8 13 13 9 8 7 7 5 5 5 5 9 10 10 11 10 13 15 19 18 19 20 22 24 24 24 23 21 17 14 11
28 27 25 29 24 21 20 20 17 16 17 10 11 11 11 13 12 9 9 8 8 10 9 9 7 7 8 4 9 14 15 15 11 11 14 18 19 19 19 20 19 17 15
26 24 22 23 25 27 22 21 21 13 11 10 7 9 8 15 17 14 13 12 10 10 12 9 9 7 8 7 5 9 12 13 10 8 6 11 12 12 12 13 12 11 8
25 22 24 25 25 29 25 22 21 18 15 14 10 12 13 11 13 16 14 17 15 14 11 10 9 6 7 7 7 7 9 13 8 4 2 5 4 1 4 6 5 4 3
35 33 31 28 28 31 29 26 25 23 22 16 13 11 15 15 9 11 17 17 18 16 15 12 7 5 7 9 6 7 9 9 12 7 8 4 3 2 5 2 1 4 3
42 37 37 34 31 32 31 28 28 25 30 30 20 14 12 20 16 19 21 21 19 17 18 16 15 15 17 19 15 13 10 9 11 10 6 6 11 10 10 6 5 6 5
44 42 41 38 33 31 30 30 26 31 29 24 21 20 19 26 30 21 20 19 22 20 12 16 18 21 21 21 19 17 14 11 8 11 8 9 10 10 11 12 13 14 13
43 44 45 41 37 34 31 31 32 26 30 26 24 21 27 25 32 31 25 24 25 20 20 18 19 20 19 17 19 23 23 15 11 15 14 14 19 19 24 28 23 20 20
37 39 43 41 38 36 34 31 29 31 28 28 26 31 35 33 37 27 25 25 27 23 25 29 27 30 27 24 24 24 24 22 21 18 20 27 26 28 33 32 27 26 24
32 36 41 40 37 38 37 37 30 28 27 32 31 39 47 45 40 43 40 34 31 34 31 32 30 32 33 32 33 30 29 26 25 25 24 34 34 36 37 39 34 31 31
29 32 38 41 40 37 39 39 40 36 33 34 40 45 48 46 38 44 44 42 43 42 43 40 35 33 36 35 34 30 30 28 29 31 32 35 37 34 32 36 41 42 46
24 27 29 32 39 43 43 42 41 43 43 43 40 45 49 47 49 50 49 51 51 50 47 42 40 37 37 39 39 37 34 34 36 40 38 31 28 30 33 34 35 39 43
15 17 18 19 20 23 29 36 41 44 43 42 43 46 50 52 55 54 47 47 54 47 45 43 40 41 41 41 41 42 40 41 36 35 35 32 34 34 35 37 38 42 46
9 9 10 12 11 7 8 13 18 24 34 38 42 46 47 45 48 56 51 44 45 46 46 47 45 43 44 42 42 43 44 43 43 42 40 40 41 41 43 46 47 49 49
Wind_Direction
141 152 153 134 89 19 316 351 14 14 14 11 7 21 13 16 17 14 3 13 23 25 18 10 10 353 321 292 301 298 259 236 228 227 217 212 216 216 199 189 190 185 191
12 203 233 274 293 311 304 304 348 4 18 17 17 20 16 13 15 351 346 8 18 27 28 20 13 12 7 344 296 304 285 243 221 217 208 207 204 200 194 188 187 189 198
282 347 244 253 280 286 292 283 308 347 357 19 18 9 10 16 14 8 342 7 17 29 35 25 20 19 24 27 21 33 47 343 225 210 203 196 193 193 191 185 186 183 196
278 192 40 52 40 12 32 324 321 333 358 0 8 1 10 13 6 6 7 13 21 29 32 29 23 28 34 47 46 56 51 48 110 189 187 189 186 189 186 185 186 187 191
346 299 100 79 45 59 66 59 342 353 34 350 1 349 350 6 7 0 12 15 23 35 40 33 29 33 39 43 51 56 51 52 73 144 173 179 184 180 183 183 182 185 185
285 222 261 247 150 76 50 52 43 16 75 32 11 329 337 354 8 17 23 29 36 38 38 35 37 40 42 43 46 52 56 62 75 109 142 159 172 177 181 182 180 177 178
285 280 309 243 243 237 318 0 28 169 65 45 31 308 318 344 4 22 29 33 33 30 38 38 41 44 46 48 51 56 65 74 72 97 130 143 156 167 176 178 177 178 179
267 284 297 296 264 264 293 309 300 7 124 51 336 346 327 347 6 9 8 12 14 31 38 39 45 49 48 46 53 59 66 78 84 84 98 119 136 153 164 171 173 177 176
266 284 285 288 279 244 246 258 314 300 160 59 344 341 342 355 6 17 12 27 33 38 40 41 41 45 47 53 51 57 65 72 81 85 85 100 119 134 151 160 168 175 186
252 272 279 263 267 267 245 231 312 290 243 222 349 325 346 7 6 328 5 26 35 41 39 45 43 42 47 55 60 58 60 66 72 83 89 93 104 121 136 146 157 155 162
249 255 260 262 256 271 280 243 246 278 244 215 53 303 315 349 4 347 15 20 31 36 39 41 40 46 52 68 64 65 63 65 68 71 78 93 102 111 127 156 163 172 183
242 255 249 248 258 265 264 262 261 261 244 219 285 272 283 298 337 338 9 26 46 45 44 33 41 46 51 63 64 65 64 69 73 73 74 77 86 101 119 141 159 175 191
254 251 248 251 255 257 254 254 254 250 242 228 256 268 269 264 278 305 329 353 15 16 356 0 31 31 30 69 47 41 44 54 66 74 82 84 86 89 97 104 115 127 144
258 264 253 253 249 245 247 243 246 241 235 224 255 248 268 247 265 290 295 309 312 320 321 315 341 355 12 9 5 20 15 36 47 53 81 95 92 90 91 98 103 107 111
251 250 250 250 247 241 243 239 231 232 233 201 192 220 244 264 262 269 292 302 308 322 329 313 312 320 339 345 338 4 15 8 23 40 82 105 100 93 94 103 103 107 106
244 251 252 246 244 239 244 232 230 232 216 229 236 252 237 255 271 253 259 283 281 293 296 301 315 290 312 337 341 351 352 351 346 337 158 170 139 56 81 113 73 100 89
245 251 249 242 237 236 240 234 230 226 224 233 242 251 248 248 258 264 291 286 287 292 287 272 267 270 270 307 315 318 318 324 318 296 272 254 257 220 246 232 19 6 18
252 244 240 237 234 237 238 229 225 224 235 242 246 262 265 256 273 273 290 282 285 280 280 264 278 261 273 285 293 299 293 312 300 277 270 272 229 234 237 237 284 278 298
241 234 235 234 232 233 234 222 227 226 235 234 222 258 264 253 261 284 266 276 273 267 261 262 258 272 272 274 278 275 281 278 276 283 274 268 250 260 266 245 274 264 267
232 230 231 230 230 234 231 228 227 238 238 238 229 230 262 271 270 279 269 268 269 262 261 280 269 272 282 274 269 274 279 272 258 260 246 257 256 271 259 257 264 265 267
231 231 230 228 231 235 231 228 234 232 232 226 209 227 246 248 262 262 263 267 257 258 277 280 285 279 273 276 267 267 267 263 254 255 253 262 266 272 269 259 260 261 254
224 223 225 228 228 230 228 226 231 230 224 220 227 229 237 244 245 258 262 252 258 276 278 274 282 274 275 280 281 268 263 266 256 252 259 246 253 265 265 266 259 253 256
234 227 227 228 229 235 238 237 233 236 226 224 224 228 241 238 240 248 254 257 260 273 279 284 280 275 274 278 283 269 256 250 250 253 256 253 258 265 271 267 257 262 267
230 232 233 237 239 241 244 244 242 242 244 244 235 238 235 236 236 242 249 257 260 269 274 277 278 273 278 279 280 272 255 253 250 251 258 261 269 272 274 274 273 271 272
218 223 229 235 239 244 246 249 249 248 247 244 243 244 240 236 236 242 253 263 262 269 270 271 273 275 278 281 276 270 262 261 253 253 254 257 264 272 280 283 287 288 284
161 177 193 199 179 229 246 272 261 251 247 251 253 249 249 253 256 257 255 251 256 258 261 265 270 276 276 274 269 262 261 259 247 246 250 259 265 272 280 281 284 283 282
Height
10983 10985 10986 10987 10986 10986 10984 10984 10983 10983 10982 10981 10980 10978 10976 10973 10970 10965 10962 10958 10954 10950 10946 10942 10937 10933 10928 10925 10922 10920 10918 10918 10919 10920 10924 10929 10933 10937 10941 10946 10951 10956 10960
10983 10985 10986 10986 10986 10986 10984 10984 10984 10984 10982 10981 10980 10979 10977 10973 10970 10966 10964 10960 10955 10950 10945 10941 10936 10930 10925 10922 10920 10917 10915 10914 10914 10916 10920 10925 10930 10933 10938 10943 10949 10955 10958
10983 10984 10985 10985 10986 10985 10984 10984 10984 10984 10983 10982 10980 10979 10977 10974 10971 10969 10965 10961 10956 10952 10948 10941 10936 10929 10924 10920 10917 10915 10913 10910 10910 10912 10917 10921 10926 10930 10936 10942 10948 10953 10958
10984 10985 10985 10985 10985 10984 10984 10984 10983 10984 10984 10983 10981 10980 10978 10975 10972 10968 10965 10961 10957 10953 10949 10943 10938 10931 10925 10920 10917 10915 10913 10909 10906 10908 10913 10918 10923 10928 10934 10940 10946 10952 10958
10984 10984 10985 10985 10985 10984 10984 10982 10983 10983 10983 10983 10982 10981 10979 10975 10972 10969 10966 10962 10958 10954 10950 10946 10942 10935 10928 10923 10919 10916 10914 10910 10907 10907 10912 10917 10922 10927 10933 10939 10945 10950 10957
10984 10982 10983 10984 10985 10985 10983 10982 10982 10983 10983 10983 10982 10981 10979 10976 10973 10969 10967 10965 10960 10956 10953 10950 10946 10938 10931 10925 10922 10918 10915 10913 10911 10910 10913 10917 10921 10927 10933 10939 10945 10951 10958
10984 10982 10981 10982 10983 10983 10982 10982 10983 10982 10983 10983 10982 10980 10978 10977 10973 10970 10969 10966 10963 10960 10956 10952 10949 10943 10938 10932 10927 10923 10919 10918 10915 10914 10916 10919 10923 10927 10933 10939 10946 10952 10958
10981 10981 10980 10980 10981 10981 10981 10981 10981 10982 10982 10982 10981 10980 10978 10976 10974 10971 10970 10968 10966 10963 10959 10955 10952 10948 10944 10939 10934 10929 10926 10924 10922 10921 10921 10923 10925 10929 10933 10940 10946 10953 10958
10977 10979 10979 10978 10979 10979 10980 10979 10979 10981 10980 10981 10980 10979 10977 10975 10974 10972 10970 10968 10967 10965 10962 10959 10955 10952 10948 10945 10941 10938 10933 10930 10928 10927 10927 10928 10929 10931 10935 10940 10946 10953 10958
10973 10974 10975 10976 10976 10978 10978 10978 10978 10979 10979 10979 10978 10978 10978 10976 10974 10974 10972 10970 10968 10966 10964 10962 10959 10956 10954 10951 10949 10946 10941 10937 10935 10933 10933 10933 10934 10936 10939 10943 10949 10954 10958
10967 10969 10971 10972 10973 10973 10973 10974 10977 10977 10978 10976 10975 10977 10977 10976 10975 10973 10973 10971 10969 10967 10966 10964 10963 10960 10958 10957 10955 10952 10949 10946 10943 10941 10940 10939 10939 10940 10943 10948 10952 10956 10959
10960 10962 10965 10966 10968 10969 10969 10970 10971 10973 10975 10975 10974 10975 10975 10975 10974 10974 10973 10971 10970 10968 10967 10966 10965 10963 10962 10960 10959 10957 10955 10953 10950 10948 10947 10946 10945 10945 10947 10950 10953 10957 10960
10953 10956 10959 10961 10963 10964 10965 10966 10967 10969 10971 10971 10971 10973 10973 10973 10973 10973 10972 10972 10970 10969 10969 10967 10966 10965 10965 10963 10961 10960 10959 10957 10955 10954 10953 10952 10952 10951 10951 10953 10955 10957 10959
10946 10949 10951 10953 10956 10959 10961 10961 10963 10965 10967 10967 10967 10969 10970 10970 10971 10972 10972 10972 10970 10969 10968 10967 10967 10966 10966 10965 10963 10962 10961 10960 10959 10958 10957 10956 10955 10955 10956 10957 10957 10959 10960
10938 10940 10942 10945 10948 10952 10955 10957 10959 10961 10963 10964 10964 10966 10966 10967 10968 10969 10970 10970 10970 10968 10967 10967 10967 10966 10966 10965 10964 10963 10962 10961 10960 10959 10959 10959 10958 10958 10958 10958 10958 10959 10960
10928 10931 10934 10938 10941 10946 10949 10951 10953 10957 10958 10960 10960 10963 10964 10964 10965 10966 10968 10968 10966 10967 10966 10966 10966 10965 10965 10964 10963 10962 10961 10961 10960 10959 10959 10959 10959 10959 10960 10959 10959 10959 10960
10918 10922 10926 10929 10933 10938 10942 10944 10947 10951 10954 10957 10958 10959 10960 10961 10961 10963 10964 10963 10963 10963 10963 10963 10964 10964 10964 10963 10963 10962 10961 10960 10959 10959 10959 10959 10959 10959 10959 10958 10958 10957 10957
10909 10913 10918 10921 10925 10930 10935 10938 10940 10944 10948 10951 10953 10954 10955 10956 10957 10958 10960 10959 10957 10958 10959 10959 10959 10960 10960 10960 10960 10959 10959 10958 10958 10958 10958 10957 10957 10957 10955 10955 10955 10955 10955
10899 10903 10908 10914 10918 10922 10926 10931 10934 10937 10941 10944 10946 10949 10950 10952 10951 10952 10953 10954 10954 10955 10955 10956 10955 10955 10955 10956 10955 10955 10955 10955 10955 10954 10954 10954 10954 10954 10954 10952 10951 10951 10952
10889 10893 10899 10906 10911 10915 10920 10924 10926 10930 10933 10936 10941 10944 10944 10946 10945 10946 10947 10947 10948 10949 10950 10951 10950 10950 10950 10950 10951 10951 10950 10950 10950 10950 10950 10951 10950 10949 10949 10948 10947 10947 10947
10880 10886 10891 10898 10903 10908 10912 10916 10920 10923 10927 10930 10935 10937 10939 10941 10939 10939 10941 10941 10942 10943 10944 10945 10945 10944 10943 10944 10943 10943 10943 10944 10945 10945 10945 10943 10943 10943 10942 10941 10941 10941 10940
10869 10876 10883 10889 10894 10899 10904 10908 10913 10916 10919 10923 10928 10929 10929 10931 10932 10931 10933 10934 10934 10935 10936 10937 10937 10937 10938 10937 10936 10936 10937 10937 10937 10938 10938 10937 10936 10936 10935 10934 10934 10934 10933
10867 10871 10876 10880 10885 10890 10894 10900 10905 10909 10912 10914 10917 10918 10919 10922 10924 10920 10923 10924 10925 10926 10927 10927 10927 10927 10928 10927 10926 10926 10927 10928 10929 10929 10930 10929 10929 10927 10925 10924 10925 10925 10924
10860 10866 10871 10874 10877 10882 10886 10889 10893 10897 10900 10903 10906 10907 10909 10911 10912 10912 10912 10913 10915 10916 10916 10915 10916 10915 10915 10916 10917 10916 10917 10917 10918 10919 10919 10919 10919 10918 10917 10916 10915 10914 10913
10854 10858 10862 10867 10872 10875 10878 10880 10882 10884 10887 10890 10893 10896 10898 10899 10900 10902 10902 10902 10904 10905 10904 10904 10904 10904 10904 10904 10905 10905 10906 10907 10907 10908 10908 10909 10909 10908 10906 10905 10903 10902 10901
10851 10856 10859 10861 10864 10868 10870 10873 10873 10873 10876 10879 10881 10883 10885 10886 10888 10890 10891 10892 10893 10893 10893 10892 10892 10891 10891 10892 10892 10892 10893 10894 10895 10895 10896 10897 10896 10896 10895 10893 10891 10889 10887